[[{"header":{"parameterUnit":"m.s-1","parameterCategory":1,"la1":30.2991,"la2":30.254,"lo1":-89.0895,"lo2":-89.0444,"dx":0.0017,"dy":0.0017,"nx":28,"ny":28,"refTime":"2023-01-10T15:00:00:Z","depth":0,"parameterNumber":2,"parameterNumberName":"U-component_of_WINDS"},"data":[0,0,0,0,0,0,0,0,0,0,0,0,0,0,0,0,0,0,0,0,0,0,0,0,0,0,0,0,0,0,0,0,0,0,0,0,0,0,0,0,0,0,0,0,0,0,0,0,0,0,0,0,0,0,0,0,0,0,0.4639,0.4639,0,0.4644,0.4644,0.4644,0.4598,0.4597,0.4596,0.4594,0.4602,0.4604,0.4605,0,0,0,0,0,0,0,0,0,0,0,0,0,0.4594,0.4595,0.4639,0.4639,0.4639,0.4644,0.4644,0.4644,0.4598,0.4597,0.4595,0.4594,0.4602,0.4604,0.4605,0,0,0,0,0,0,0,0,0,0,0,0,0,0.4608,0.4595,0.4639,0.4617,0.4615,0.4644,0.4644,0.4644,0.4599,0.4597,0.4595,0.4593,0.4601,0.4603,0.4605,0.4657,0,0,0.4612,0.4613,0,0,0,0,0,0,0,0,0.4607,0.4609,0.462,0.4619,0.4616,0.4618,0.4631,0.4649,0.4599,0.4605,0.4594,0.4592,0.4609,0.4611,0.4616,0.4657,0.4658,0.4612,0.4613,0.4614,0.4615,0,0,0,0,0,0,0,0.4606,0.4609,0.4641,0.4621,0.4618,0.4608,0.4608,0.4634,0.4618,0.4604,0.4601,0.4602,0.4608,0.4614,0.4616,0.4658,0.4612,0.4614,0.4615,0.4616,0.4743,0.4745,0,0,0,0,0,0,0.4608,0.4608,0.4641,0.4641,0.4607,0.461,0.461,0.462,0.4618,0.4615,0.4604,0.46,0.4611,0.4613,0.4616,0.4677,0.4614,0.4616,0.4617,0.4741,0.4743,0.4746,0,0,0,0,0,0,0.4607,0.4611,0.4641,0.4624,0.4627,0.4613,0.4624,0.4621,0.4627,0.4617,0.4614,0.4613,0.461,0.4613,0.4647,0.4677,0.4617,0.4619,0.4738,0.4742,0.4744,0.48,0,0,0,0,0,0,0.4606,0.4611,0.463,0.4625,0.4628,0.4671,0.4626,0.4622,0.463,0.4625,0.4625,0.4623,0.4609,0.4644,0.4649,0.4679,0.4621,0.4736,0.474,0.4743,0.4795,0.4804,0.4812,0,0,0,0,0,0.4604,0.4645,0.4631,0.4635,0.4651,0.4673,0.4675,0.4657,0.4633,0.4652,0.4646,0.4623,0.4672,0.4648,0.4653,0.4684,0.4734,0.4739,0.4743,0.4792,0.4803,0.4812,0,0,0,0,0,0,0.4655,0.4644,0.4628,0.4669,0.4672,0.4665,0.4689,0.4669,0.4681,0.4676,0.4654,0.4654,0.4692,0.4691,0.4664,0.4734,0.4699,0.4705,0.4734,0.4744,0.4753,0.4753,0.4623,0,0,0,0,0,0.4671,0.4689,0.4679,0.4715,0.4718,0.4703,0.4712,0.4698,0.4701,0.4703,0.4699,0.4704,0.472,0.4732,0.4747,0.4794,0.4794,0.4818,0.4826,0.4833,0.484,0.4866,0.4877,0.4761,0.4761,0.4761,0,0,0.4704,0.47,0.4713,0.4726,0.4727,0.4747,0.4705,0.4728,0.4743,0.4706,0.4739,0.4736,0.474,0.4781,0.48,0.4782,0.4871,0.4839,0.4845,0.4847,0.4872,0.4883,0.4893,0.4764,0.4764,0.4763,0,0,0.4775,0.4773,0.4805,0.4806,0.4808,0.4798,0.4805,0.4802,0.4798,0.483,0.4803,0.4821,0.485,0.4855,0.4861,0.4933,0.4913,0.4939,0.4984,0.501,0.502,0.5028,0.5056,0.5066,0.4944,0.4945,0.4945,0,0.4817,0.4845,0.4823,0.4848,0.4855,0.4822,0.4854,0.4857,0.4864,0.487,0.4849,0.4886,0.4886,0.4929,0.4946,0.4952,0.4961,0.494,0.502,0.5028,0.5035,0.5061,0.5072,0.4948,0.4947,0.4947,0.4947,0,0.4897,0.4917,0.4942,0.4949,0.4959,0.4987,0.4971,0.4983,0.4968,0.4961,0.4994,0.4993,0.5008,0.5016,0.5002,0.5058,0.5047,0.5023,0.4988,0.505,0.5074,0.5084,0.4952,0.4951,0.495,0.495,0,0,0.5002,0.4996,0.5006,0.5009,0.5008,0.5024,0.5051,0.5065,0.5077,0.5082,0.5106,0.5131,0.511,0.5117,0.5102,0.5125,0.5185,0.5099,0.5099,0.5117,0.5249,0.5268,0.528,0.5171,0.5173,0.5174,0.5249,0,0.5072,0.5118,0.51,0.5148,0.5167,0.5136,0.516,0.5163,0.5156,0.5173,0.5166,0.5185,0.5154,0.5158,0.5179,0.5174,0.5212,0.5167,0.5195,0.5196,0.5197,0.5292,0.5313,0.5384,0.5258,0.526,0.5261,0,0.5161,0.517,0.5221,0.5217,0.5225,0.5247,0.5258,0.5273,0.5277,0.527,0.5278,0.5259,0.5287,0.525,0.5289,0.526,0.5269,0.5268,0.5271,0.5275,0.5234,0.5301,0.5405,0.5417,0.5276,0.5274,0.5273,0,0.5235,0.526,0.5293,0.5297,0.5293,0.531,0.5309,0.531,0.532,0.533,0.5336,0.5349,0.5357,0.5369,0.5354,0.5328,0.5396,0.5358,0.5394,0.5395,0.5412,0.5411,0.5522,0.5414,0.5414,0.5414,0.5414,0,0.5317,0.535,0.5327,0.5348,0.5383,0.5362,0.5398,0.5394,0.5395,0.5416,0.5389,0.5409,0.5387,0.5406,0.5394,0.543,0.5433,0.543,0.5427,0.5434,0.5435,0.5442,0.5438,0.5417,0.5416,0.5416,0.5415,0,0.5407,0.5392,0.5427,0.5421,0.542,0.5447,0.5442,0.5462,0.5453,0.548,0.5485,0.5472,0.5492,0.5478,0.5498,0.5491,0.5538,0.5527,0.5537,0.5535,0.5573,0.557,0.5694,0.571,0.559,0.5591,0.5592,0,0.5461,0.5486,0.5482,0.5494,0.5495,0.5513,0.5523,0.5502,0.5514,0.5519,0.5539,0.5557,0.557,0.5604,0.5597,0.5613,0.5604,0.5646,0.5606,0.5613,0.5607,0.5607,0.561,0.5655,0.5656,0.5657,0.5658,0,0.5561,0.5552,0.5566,0.5579,0.5591,0.56,0.5606,0.5618,0.5597,0.5611,0.5631,0.5641,0.5662,0.5681,0.5694,0.5694,0.5674,0.567,0.568,0.5688,0.5694,0.5694,0.5562,0.5668,0.5667,0.5666,0.5666,0.5665,0.5636,0.5656,0.5657,0.5675,0.5677,0.5684,0.5703,0.5697,0.5713,0.5728,0.5714,0.5739,0.5742,0.5758,0.5761,0.5781,0.5764,0.5777,0.5781,0.5785,0.5792,0.5689,0.5783,0.5782,0.5782,0.5782,0.5782,0,0.5735,0.5734,0.575,0.576,0.5775,0.5752,0.5758,0.5772,0.5794,0.5798,0.5812,0.5836,0.5853,0.5848,0.5864,0.5881,0.5873,0.5887,0.5886,0.5887,0.5805,0.5796,0.5894,0.5894,0.5894,0.5894,0.5894,0.5894,0.5789,0.5823,0.5815,0.5851,0.585,0.5873,0.5879,0.5886,0.589,0.5917,0.5932,0.5928,0.5929,0.5945,0.5961,0.5959,0.5967,0.5985,0.598,0.5904,0.5893,0.5882,0.5874,0.5987,0.5987,0.6061,0.6062,0.6063]},{"header":{"parameterUnit":"m.s-1","parameterCategory":1,"la1":30.2991,"la2":30.254,"lo1":-89.0895,"lo2":-89.0444,"dx":0.0017,"dy":0.0017,"nx":28,"ny":28,"refTime":"2023-01-10T15:00:00:Z","depth":0,"parameterNumber":3,"parameterNumberName":"V-component_of_WINDS"},"data":[0,0,0,0,0,0,0,0,0,0,0,0,0,0,0,0,0,0,0,0,0,0,0,0,0,0,0,0,0,0,0,0,0,0,0,0,0,0,0,0,0,0,0,0,0,0,0,0,0,0,0,0,0,0,0,0,0,0,4.5175,4.5176,0,4.5266,4.5267,4.5268,4.5247,4.5245,4.5243,4.5241,4.533,4.5333,4.5337,0,0,0,0,0,0,0,0,0,0,0,0,0,4.4976,4.498,4.5175,4.5176,4.5177,4.5266,4.5267,4.5269,4.5247,4.5245,4.5243,4.5241,4.5328,4.5333,4.5338,0,0,0,0,0,0,0,0,0,0,0,0,0,4.5064,4.4981,4.5175,4.5177,4.5178,4.5266,4.5268,4.5269,4.5247,4.5245,4.5242,4.524,4.5327,4.5332,4.5338,4.5428,0,0,4.5357,4.5359,0,0,0,0,0,0,0,0,4.5059,4.5072,4.5176,4.5177,4.5179,4.5243,4.523,4.5322,4.5248,4.5221,4.5241,4.5238,4.5302,4.531,4.5333,4.5432,4.5436,4.5357,4.5361,4.5363,4.5365,0,0,0,0,0,0,0,4.5053,4.5068,4.5211,4.5177,4.5179,4.5172,4.5182,4.5247,4.5275,4.5223,4.5222,4.5233,4.5303,4.5327,4.5335,4.5437,4.5357,4.5362,4.5366,4.5368,4.5614,4.5617,0,0,0,0,0,0,4.5047,4.5063,4.5208,4.5214,4.5112,4.5178,4.5188,4.5224,4.5274,4.5279,4.5235,4.5232,4.5318,4.5328,4.5338,4.5447,4.5363,4.5369,4.5372,4.5611,4.5615,4.5618,0,0,0,0,0,0,4.5043,4.506,4.5204,4.5138,4.5156,4.5184,4.5225,4.5228,4.5252,4.5284,4.5288,4.5256,4.5317,4.5329,4.5406,4.5449,4.5372,4.5377,4.5608,4.5612,4.5616,4.5664,0,0,0,0,0,0,4.5037,4.5059,4.5094,4.5139,4.5159,4.5273,4.5227,4.5231,4.5263,4.526,4.5304,4.5309,4.5316,4.5397,4.5412,4.5456,4.5382,4.5604,4.561,4.5615,4.5659,4.567,4.5679,0,0,0,0,0,4.503,4.5102,4.5096,4.5114,4.5205,4.5275,4.5287,4.5295,4.5267,4.5302,4.5322,4.5307,4.5442,4.5405,4.5422,4.5468,4.5601,4.5608,4.5614,4.5655,4.5668,4.5679,0,0,0,0,0,0,4.506,4.5108,4.5102,4.5191,4.523,4.5272,4.5316,4.5308,4.5354,4.5348,4.5355,4.5365,4.5443,4.5463,4.5421,4.5557,4.5517,4.5527,4.5542,4.5555,4.5565,4.5559,4.5387,0,0,0,0,0,4.5077,4.5132,4.5171,4.5246,4.5266,4.5288,4.5319,4.5322,4.5361,4.5377,4.5402,4.5439,4.549,4.5523,4.5571,4.5661,4.5671,4.5701,4.5711,4.5719,4.5728,4.5778,4.5792,4.564,4.564,4.5639,0,0,4.5113,4.5146,4.518,4.5253,4.5283,4.5339,4.5302,4.5362,4.5403,4.5385,4.546,4.548,4.5522,4.5606,4.5644,4.5624,4.5773,4.5728,4.5734,4.5739,4.5786,4.5801,4.5814,4.5644,4.5643,4.5643,0,0,4.5207,4.5238,4.5305,4.5336,4.5383,4.5397,4.5413,4.5456,4.547,4.5545,4.5534,4.5581,4.5668,4.5699,4.5726,4.5832,4.582,4.5847,4.59,4.5948,4.596,4.5971,4.601,4.6024,4.5856,4.5856,4.5856,0,4.5245,4.5331,4.5339,4.5402,4.5434,4.5422,4.5489,4.5518,4.5578,4.5599,4.5577,4.5687,4.5714,4.5806,4.5832,4.5853,4.5871,4.5843,4.5958,4.5969,4.5979,4.6016,4.6031,4.5859,4.5859,4.5858,4.5858,0,4.5376,4.5435,4.5483,4.5543,4.5581,4.5645,4.5662,4.5698,4.5698,4.5714,4.5791,4.5823,4.5878,4.5899,4.5898,4.5991,4.5978,4.5957,4.5917,4.5997,4.6032,4.6046,4.5863,4.5862,4.5861,4.5861,0,0,4.5492,4.5557,4.5574,4.5602,4.5653,4.5698,4.5761,4.5817,4.5849,4.5889,4.5942,4.6016,4.5998,4.6029,4.6031,4.6073,4.6156,4.6047,4.6048,4.6067,4.6261,4.6277,4.6294,4.6148,4.6151,4.6153,4.6258,0,4.5592,4.5706,4.5715,4.5817,4.5872,4.5862,4.5916,4.5953,4.5969,4.6017,4.6034,4.6087,4.6058,4.6077,4.6118,4.6138,4.6195,4.613,4.6197,4.6199,4.6189,4.6312,4.6329,4.6427,4.6271,4.6274,4.6275,0,4.5724,4.5771,4.588,4.5924,4.5947,4.5997,4.6049,4.6095,4.6135,4.6144,4.6179,4.6176,4.6239,4.6196,4.6283,4.6239,4.6266,4.628,4.6284,4.6291,4.6243,4.6324,4.6458,4.6473,4.6297,4.6295,4.6293,0,4.5799,4.589,4.5967,4.599,4.6043,4.6079,4.6102,4.614,4.6173,4.6218,4.624,4.629,4.6318,4.6357,4.6367,4.6335,4.6454,4.6412,4.6463,4.6463,4.649,4.6489,4.6632,4.6506,4.6505,4.6505,4.6505,0,4.5911,4.5977,4.6002,4.6049,4.6124,4.6133,4.6206,4.6226,4.626,4.6311,4.6303,4.635,4.636,4.6408,4.6416,4.6487,4.6499,4.6508,4.6509,4.651,4.6509,4.6529,4.6523,4.6509,4.6508,4.6507,4.6507,0,4.6008,4.6027,4.6111,4.6155,4.6167,4.622,4.6257,4.6302,4.6317,4.6381,4.6396,4.642,4.6476,4.649,4.6557,4.6562,4.6647,4.6641,4.6634,4.6634,4.6686,4.6681,4.6848,4.687,4.6728,4.673,4.6731,0,4.6079,4.6131,4.6181,4.6215,4.6241,4.6295,4.633,4.6341,4.6376,4.6427,4.6466,4.6522,4.6567,4.6658,4.668,4.6731,4.6727,4.6782,4.6735,4.6734,4.6729,4.6727,4.6732,4.6791,4.6793,4.6794,4.6795,0,4.6203,4.621,4.6261,4.6316,4.6358,4.6401,4.6442,4.647,4.6486,4.6527,4.6586,4.6621,4.6691,4.6746,4.6798,4.6819,4.681,4.681,4.6825,4.6826,4.6821,4.6826,4.666,4.6806,4.6805,4.6804,4.6804,4.6803,4.629,4.6336,4.6379,4.6437,4.6469,4.6508,4.6553,4.6575,4.6625,4.6684,4.6686,4.675,4.6789,4.6857,4.6882,4.6932,4.6915,4.6936,4.6941,4.6947,4.6952,4.6812,4.694,4.694,4.694,4.694,4.6939,0,4.6415,4.6442,4.6495,4.6554,4.6599,4.6588,4.6633,4.6671,4.6728,4.6766,4.6812,4.688,4.6934,4.696,4.7014,4.7048,4.7045,4.7062,4.706,4.7065,4.6964,4.6946,4.7063,4.7063,4.7063,4.7063,4.7063,4.7063,4.6485,4.6563,4.6575,4.6668,4.6694,4.6759,4.6786,4.6821,4.6852,4.6929,4.6975,4.6992,4.7025,4.7081,4.713,4.7136,4.7156,4.7176,4.718,4.7085,4.7072,4.706,4.7044,4.718,4.718,4.7278,4.7278,4.7279]}]]